This demonstration page uses our WeatherBlox Daily Observations layout. Learn more.

Left ArrowRight Arrow

39.08367, -84.50855

Hourly Observations for April 9, 2015

Temp ( °F °C ) Dew Point ( °F °C ) Humidity (%) Winds ( mph kmh ) Pressure ( in mb ) Visibility ( mi km ) Precip ( " mm )
12:46 am 00:46 Mostly Cloudy with Mist and Fog 55 13 55 13 100 100 SW 3 6 30.00 1016 1 2 N/A
12:53 am 00:53 Mostly Cloudy with Mist and Fog 57 13.9 57 13.9 100 100 N N/A 29.99 1016 1 1 N/A
1:10 am 01:10 Clear with Fog 54 12 54 12 100 100 N N/A 29.97 1015 1 1 N/A
1:16 am 01:16 Mostly Cloudy with Fog 55 13 55 13 100 100 N N/A 29.97 1015 0 0 N/A
1:53 am 01:53 Mostly Cloudy with Fog 54 12.2 54 12.2 100 100 N N/A 29.98 1015 0 0 N/A
2:53 am 02:53 Cloudy with Fog 55 12.8 55 12.8 100 100 N N/A 29.95 1014 0 0 N/A
3:05 am 03:05 Mostly Cloudy with Mist and Fog 55 12.8 55 12.8 100 100 W 3 6 29.94 1014 1 1 N/A
3:10 am 03:10 Partly Cloudy with Mist and Fog 55 13 55 13 100 100 VRB 3 6 29.94 1014 3 4 N/A
3:17 am 03:17 Mostly Cloudy 56 13.3 56 13.3 100 100 WSW 3 6 29.94 1014 7 11 N/A
3:53 am 03:53 Mostly Clear 56 13.3 56 13.3 100 100 WSW 6 9 29.93 1013 8 13 N/A
4:53 am 04:53 Mostly Clear 57 13.9 57 13.9 100 100 W 5 7 29.90 1013 10 16 N/A
5:53 am 05:53 Clear 56 13.3 56 13.3 100 100 WNW 3 6 29.90 1013 8 13 N/A
6:53 am 06:53 Clear 56 13.3 56 13.3 100 100 SW 3 6 29.91 1013 10 16 N/A
7:53 am 07:53 Sunny 57 13.9 57 13.9 100 100 N N/A 29.92 1013 10 16 N/A
8:53 am 08:53 Sunny 59 15 59 15 100 100 N N/A 29.93 1014 10 16 N/A
9:53 am 09:53 Partly Cloudy 63 17.2 62 16.7 97 97 WSW 3 6 29.93 1014 10 16 N/A
10:53 am 10:53 Cloudy 67 19.4 63 17.2 87 87 SSW 9 15 29.93 1014 10 16 N/A
11:53 am 11:53 Mostly Cloudy 69 20.6 65 18.3 87 87 S 12 19 29.91 1013 10 16 N/A
12:53 pm 12:53 Partly Cloudy 76 24.4 67 19.4 74 74 SSW 9 15 29.88 1012 10 16 N/A
1:37 pm 13:37 Mostly Cloudy with Thunderstorms 75 23.9 65 18.3 71 71 WSW 18 30 29.88 1012 10 16 N/A
1:53 pm 13:53 Mostly Cloudy with Thunderstorms 73 22.8 65 18.3 76 76 SW 21 33 29.88 1012 5 8 0.02 0.51
2:40 pm 14:40 Cloudy 66 19 63 17 88 88 SW 10 17 29.88 1012 10 16 N/A
2:53 pm 14:53 Mostly Cloudy 67 19.4 62 16.7 84 84 SW 14 22 29.87 1012 10 16 0.03 0.76
3:53 pm 15:53 Partly Cloudy 71 21.7 65 18.3 81 81 SSW 13 20 29.85 1011 10 16 N/A
4:53 pm 16:53 Mostly Cloudy 73 22.8 67 19.4 81 81 S 8 13 29.80 1009 10 16 N/A
5:53 pm 17:53 Mostly Cloudy with Nearby Thunderstorms 73 22.8 66 18.9 79 79 SSW 3 6 29.78 1009 10 16 N/A
6:15 pm 18:15 Mostly Cloudy with Thunderstorms 72 22.2 66 18.9 82 82 S 3 6 29.80 1009 10 16 N/A
6:41 pm 18:41 Mostly Cloudy with Thunderstorms 68 20 66 18.9 93 93 NW 6 9 29.83 1010 7 11 0.08 2.03
6:53 pm 18:53 Cloudy with Light Rain 66 19 N/A N/A SE 6 9 29.80 1009 10 16 0.08 2.03
7:53 pm 19:53 Sunny 64 18 N/A N/A N N/A 29.78 1009 9 14 N/A
8:53 pm 20:53 Clear 63 17 N/A N/A N N/A 29.79 1009 10 16 N/A
9:53 pm 21:53 Clear 68 20 66 18.9 93 93 SSW 8 13 29.79 1009 10 16 N/A
10:53 pm 22:53 Clear 70 21.1 61 16.1 73 73 SSW 13 20 29.78 1009 10 16 N/A
11:53 pm 23:53 Clear 70 21.1 61 16.1 73 73 SSW 14 22 29.75 1008 10 16 N/A

Powered by AerisWeather